[[{"header":{"parameterUnit":"m.s-1","parameterCategory":1,"la1":30.2991,"la2":30.254,"lo1":-89.0895,"lo2":-89.0444,"dy":0.0017,"dx":0.0017,"nx":28,"ny":28,"refTime":"2024-07-04T09:00:00:Z","depth":0,"parameterNumber":2,"parameterNumberName":"U-component_of_WINDS"},"data":[0,0,0,0,0,0,0,0,0,0,0,0,0,0,0,0,0,0,0,0,0,0,0,0,0,0,0,0,0,0,0,0,0,0,0,0,0,0,0,0,0,0,0,0,0,0,0,0,0,0,0,0,0,0,0,0,0,0,1.9785,1.9785,0,1.9814,1.9814,1.9814,1.9801,1.9801,1.98,1.9799,1.9829,1.983,1.9832,0,0,0,0,0,0,0,0,0,0,0,0,0,1.9717,1.9719,1.9785,1.9785,1.9786,1.9814,1.9814,1.9814,1.9802,1.9801,1.98,1.9799,1.9828,1.983,1.9832,0,0,0,0,0,0,0,0,0,0,0,0,0,1.9747,1.9719,1.9785,1.9783,1.9783,1.9814,1.9814,1.9815,1.9802,1.9801,1.98,1.9799,1.9828,1.983,1.9832,1.9867,0,0,1.9839,1.984,0,0,0,0,0,0,0,0,1.9745,1.9749,1.9783,1.9783,1.9783,1.9803,1.9801,1.9832,1.9802,1.9795,1.9799,1.9798,1.9821,1.9824,1.9832,1.9868,1.987,1.9839,1.984,1.9841,1.9842,0,0,0,0,0,0,0,1.9743,1.9748,1.9796,1.9783,1.9783,1.978,1.9783,1.9807,1.9813,1.9795,1.9794,1.9798,1.9821,1.9829,1.9832,1.987,1.9839,1.9841,1.9842,1.9843,1.9934,1.9935,0,0,0,0,0,0,1.9741,1.9746,1.9795,1.9797,1.9761,1.9782,1.9785,1.9798,1.9813,1.9815,1.9799,1.9797,1.9826,1.983,1.9833,1.9873,1.9841,1.9843,1.9844,1.9933,1.9934,1.9936,0,0,0,0,0,0,1.974,1.9746,1.9794,1.9771,1.9777,1.9784,1.9798,1.9799,1.9807,1.9816,1.9817,1.9806,1.9826,1.983,1.9858,1.9874,1.9844,1.9846,1.9932,1.9934,1.9935,1.9954,0,0,0,0,0,0,1.9738,1.9745,1.9759,1.9772,1.9779,1.9819,1.9799,1.98,1.9811,1.9809,1.9823,1.9824,1.9825,1.9855,1.986,1.9876,1.9848,1.993,1.9933,1.9935,1.9952,1.9957,1.996,0,0,0,0,0,1.9735,1.9764,1.976,1.9766,1.9796,1.982,1.9824,1.9824,1.9812,1.9826,1.9831,1.9824,1.9872,1.9858,1.9864,1.9881,1.9929,1.9932,1.9934,1.9951,1.9956,1.996,0,0,0,0,0,0,1.9753,1.9766,1.9761,1.9795,1.9806,1.9818,1.9835,1.983,1.9845,1.9843,1.9842,1.9846,1.9874,1.9881,1.9865,1.9914,1.9899,1.9902,1.9909,1.9914,1.9918,1.9915,1.985,0,0,0,0,0,1.9761,1.978,1.9789,1.9818,1.9824,1.9828,1.9839,1.9838,1.985,1.9855,1.9863,1.9874,1.9892,1.9903,1.992,1.9953,1.9955,1.9968,1.9972,1.9975,1.9978,1.9994,1.9999,1.9944,1.9944,1.9944,0,0,1.9777,1.9786,1.9798,1.9822,1.9831,1.9849,1.9833,1.9854,1.9867,1.9858,1.9885,1.989,1.9904,1.9934,1.9948,1.994,1.9994,1.9978,1.9981,1.9982,1.9997,2.0002,2.0007,1.9946,1.9945,1.9945,0,0,1.9816,1.9826,1.9849,1.9858,1.9872,1.9874,1.988,1.9892,1.9895,1.9922,1.9914,1.993,1.9961,1.997,1.9979,2.0019,2.0012,2.0024,2.0044,2.006,2.0064,2.0068,2.0081,2.0086,2.0027,2.0028,2.0028,0,1.9835,1.9863,1.9862,1.9883,1.9893,1.9885,1.9908,1.9917,1.9935,1.9942,1.9933,1.997,1.9978,2.0009,2.0019,2.0027,2.0032,2.0022,2.0064,2.0068,2.0071,2.0083,2.0088,2.0029,2.0029,2.0028,2.0028,0,1.9884,1.9904,1.9921,1.9938,1.995,1.9972,1.9974,1.9986,1.9983,1.9986,2.0012,2.0022,2.0039,2.0047,2.0045,2.0077,2.0072,2.0064,2.0048,2.0078,2.0089,2.0094,2.0031,2.003,2.003,2.0029,0,0,1.9936,1.9951,1.9957,1.9964,1.9977,1.9992,2.0013,2.003,2.0039,2.0052,2.0068,2.0093,2.0085,2.0095,2.0094,2.0108,2.0137,2.0097,2.0098,2.0103,2.0171,2.0176,2.0181,2.0133,2.0134,2.0134,2.0169,0,1.9974,2.0011,2.001,2.0044,2.0061,2.0053,2.0071,2.0081,2.0084,2.0098,2.0102,2.0119,2.0107,2.0113,2.0126,2.013,2.015,2.0128,2.0147,2.0148,2.0143,2.0188,2.0194,2.0226,2.0173,2.0174,2.0175,0,2.0025,2.0038,2.0073,2.0082,2.0089,2.0105,2.0119,2.0134,2.0144,2.0145,2.0155,2.0151,2.0171,2.0155,2.0183,2.0168,2.0175,2.0178,2.018,2.0181,2.0162,2.0188,2.0236,2.0241,2.0182,2.0181,2.0181,0,2.0056,2.0083,2.0107,2.0113,2.0125,2.0136,2.0141,2.0151,2.016,2.0172,2.0178,2.0193,2.0201,2.0212,2.0212,2.02,2.0238,2.0223,2.0239,2.0239,2.0247,2.0246,2.0295,2.0254,2.0254,2.0254,2.0254,0,2.0099,2.012,2.0121,2.0136,2.0159,2.0157,2.018,2.0185,2.0193,2.0207,2.0201,2.0215,2.0215,2.0229,2.0229,2.025,2.0254,2.0255,2.0254,2.0255,2.0254,2.0259,2.0256,2.0255,2.0255,2.0255,2.0254,0,2.0138,2.014,2.0165,2.0173,2.0176,2.0192,2.0199,2.0213,2.0215,2.0233,2.0237,2.0241,2.0256,2.0258,2.0276,2.0276,2.0302,2.0299,2.0298,2.0297,2.0312,2.031,2.0366,2.0372,2.0328,2.0328,2.0328,0,2.0165,2.0181,2.019,2.0199,2.0205,2.022,2.0229,2.0228,2.0238,2.025,2.0261,2.0276,2.0288,2.0313,2.0317,2.0331,2.0328,2.0346,2.033,2.0329,2.0326,2.0325,2.0326,2.0349,2.035,2.035,2.0351,0,2.0211,2.021,2.0224,2.0237,2.0248,2.0258,2.0268,2.0275,2.0275,2.0286,2.0302,2.0311,2.0329,2.0343,2.0356,2.0361,2.0355,2.0356,2.036,2.036,2.0357,2.0357,2.0305,2.0354,2.0354,2.0354,2.0353,2.0353,2.0244,2.0257,2.0265,2.0279,2.0286,2.0295,2.0307,2.031,2.0323,2.0337,2.0336,2.0353,2.0361,2.0378,2.0383,2.0396,2.039,2.0396,2.0398,2.0399,2.04,2.0356,2.0399,2.0399,2.0399,2.0399,2.0398,0,2.0288,2.0293,2.0306,2.0319,2.033,2.0323,2.0333,2.0342,2.0357,2.0365,2.0377,2.0394,2.0407,2.0412,2.0425,2.0434,2.0431,2.0437,2.0436,2.0437,2.0406,2.04,2.0439,2.0439,2.0439,2.0439,2.0439,2.0439,2.0313,2.0334,2.0334,2.0358,2.0362,2.0378,2.0384,2.0391,2.0398,2.0417,2.0428,2.043,2.0436,2.0449,2.0461,2.0462,2.0466,2.0473,2.0473,2.0443,2.0439,2.0435,2.043,2.0474,2.0474,2.0502,2.0503,2.0503]},{"header":{"parameterUnit":"m.s-1","parameterCategory":1,"la1":30.2991,"la2":30.254,"lo1":-89.0895,"lo2":-89.0444,"dy":0.0017,"dx":0.0017,"nx":28,"ny":28,"refTime":"2024-07-04T09:00:00:Z","depth":0,"parameterNumber":3,"parameterNumberName":"V-component_of_WINDS"},"data":[0,0,0,0,0,0,0,0,0,0,0,0,0,0,0,0,0,0,0,0,0,0,0,0,0,0,0,0,0,0,0,0,0,0,0,0,0,0,0,0,0,0,0,0,0,0,0,0,0,0,0,0,0,0,0,0,0,0,1.7424,1.7424,0,1.7428,1.7428,1.7428,1.7449,1.7449,1.745,1.745,1.7453,1.7452,1.7452,0,0,0,0,0,0,0,0,0,0,0,0,0,1.7433,1.7433,1.7424,1.7424,1.7424,1.7428,1.7428,1.7428,1.7449,1.7449,1.745,1.7451,1.7453,1.7452,1.7452,0,0,0,0,0,0,0,0,0,0,0,0,0,1.7432,1.7433,1.7424,1.7435,1.7436,1.7428,1.7428,1.7428,1.7449,1.7449,1.745,1.7451,1.7453,1.7452,1.7452,1.7433,0,0,1.745,1.745,0,0,0,0,0,0,0,0,1.7432,1.7432,1.7433,1.7434,1.7435,1.7439,1.7432,1.743,1.7448,1.7444,1.745,1.7451,1.7447,1.7447,1.7446,1.7433,1.7433,1.745,1.745,1.7449,1.7449,0,0,0,0,0,0,0,1.7432,1.7432,1.7426,1.7433,1.7435,1.7439,1.744,1.7432,1.7441,1.7444,1.7446,1.7446,1.7448,1.7447,1.7447,1.7433,1.745,1.7449,1.7449,1.7449,1.7404,1.7403,0,0,0,0,0,0,1.7431,1.7432,1.7426,1.7426,1.7436,1.7438,1.7439,1.7437,1.7442,1.7443,1.7445,1.7447,1.7448,1.7447,1.7447,1.7424,1.7449,1.7449,1.7448,1.7405,1.7404,1.7403,0,0,0,0,0,0,1.7431,1.743,1.7425,1.7429,1.7429,1.7438,1.7435,1.7437,1.7435,1.7442,1.7444,1.7443,1.7448,1.7448,1.7436,1.7425,1.7449,1.7448,1.7406,1.7405,1.7404,1.738,0,0,0,0,0,0,1.7431,1.743,1.7424,1.7429,1.7429,1.7415,1.7434,1.7436,1.7435,1.7437,1.744,1.7441,1.7449,1.7437,1.7436,1.7424,1.7448,1.7407,1.7405,1.7404,1.7382,1.7378,1.7375,0,0,0,0,0,1.7431,1.7417,1.7423,1.7422,1.7421,1.7415,1.7415,1.7424,1.7434,1.7427,1.7431,1.7441,1.7426,1.7436,1.7434,1.7423,1.7408,1.7406,1.7404,1.7383,1.7379,1.7375,0,0,0,0,0,0,1.7409,1.7417,1.7425,1.7411,1.7412,1.7418,1.741,1.7419,1.7416,1.7418,1.7429,1.743,1.7417,1.7419,1.7429,1.7404,1.7419,1.7417,1.7403,1.7399,1.7396,1.7395,1.7447,0,0,0,0,0,1.7403,1.7398,1.7405,1.7393,1.7393,1.7401,1.7399,1.7406,1.7407,1.7407,1.7411,1.7411,1.7406,1.7403,1.7399,1.7382,1.7383,1.7374,1.737,1.7367,1.7365,1.7355,1.7351,1.7397,1.7397,1.7397,0,0,1.7389,1.7393,1.7389,1.7388,1.739,1.7383,1.7401,1.7394,1.739,1.7406,1.7396,1.7398,1.7399,1.7385,1.7378,1.7386,1.7352,1.7365,1.7362,1.7362,1.7353,1.7348,1.7344,1.7396,1.7396,1.7396,0,0,1.7362,1.7364,1.7354,1.7355,1.7357,1.7363,1.736,1.7365,1.7367,1.7357,1.7369,1.7364,1.7356,1.7355,1.7354,1.7326,1.7335,1.7324,1.7306,1.7296,1.7292,1.7289,1.7278,1.7274,1.7322,1.7322,1.7322,0,1.7344,1.7336,1.7347,1.7339,1.7338,1.7353,1.7342,1.7342,1.7343,1.7341,1.735,1.734,1.7341,1.7326,1.732,1.7319,1.7315,1.7324,1.7292,1.7289,1.7286,1.7276,1.7272,1.7321,1.7321,1.7321,1.7321,0,1.7314,1.7308,1.73,1.73,1.7298,1.7288,1.7297,1.7293,1.7301,1.7305,1.7294,1.7297,1.7293,1.729,1.7297,1.7276,1.728,1.729,1.7305,1.728,1.727,1.7267,1.7319,1.7319,1.732,1.732,0,0,1.7272,1.7279,1.7275,1.7275,1.7279,1.7274,1.7265,1.7262,1.7258,1.7258,1.725,1.7242,1.7252,1.725,1.7257,1.7249,1.7225,1.726,1.726,1.7252,1.72,1.7192,1.7187,1.7231,1.723,1.723,1.72,0,1.7245,1.723,1.7239,1.7223,1.7217,1.7231,1.7223,1.7224,1.7228,1.7223,1.7227,1.7221,1.7234,1.7233,1.7226,1.7229,1.7214,1.7232,1.7222,1.7222,1.7221,1.7182,1.7174,1.7146,1.7196,1.7196,1.7195,0,1.721,1.7209,1.7192,1.7196,1.7194,1.7186,1.7184,1.718,1.718,1.7184,1.7182,1.7191,1.7181,1.7196,1.7183,1.7194,1.7191,1.7192,1.7191,1.719,1.7206,1.7179,1.7137,1.7132,1.719,1.719,1.719,0,1.718,1.7174,1.7163,1.7162,1.7167,1.7161,1.7163,1.7165,1.7162,1.716,1.7158,1.7155,1.7152,1.7149,1.7156,1.7167,1.7141,1.7157,1.7143,1.7142,1.7136,1.7136,1.7092,1.7136,1.7136,1.7136,1.7136,0,1.7148,1.7136,1.7149,1.7142,1.7129,1.714,1.7127,1.713,1.7131,1.7124,1.7137,1.713,1.7141,1.7134,1.714,1.7127,1.7126,1.7128,1.7129,1.7126,1.7126,1.7124,1.7125,1.7135,1.7135,1.7135,1.7135,0,1.7111,1.7119,1.7108,1.7113,1.7114,1.7105,1.7109,1.7102,1.7107,1.7098,1.7097,1.7104,1.7097,1.7105,1.7099,1.7102,1.7085,1.7089,1.7084,1.7085,1.707,1.7071,1.7022,1.7015,1.7064,1.7064,1.7063,0,1.7089,1.7081,1.7086,1.7082,1.7083,1.7077,1.7075,1.7085,1.7082,1.7082,1.7075,1.707,1.7066,1.7054,1.7058,1.7054,1.7058,1.7041,1.7057,1.7054,1.7056,1.7056,1.7055,1.7037,1.7037,1.7036,1.7036,0,1.7049,1.7054,1.705,1.7048,1.7044,1.7043,1.7042,1.7038,1.7049,1.7044,1.7038,1.7035,1.7029,1.7023,1.7019,1.702,1.7029,1.7031,1.7027,1.7023,1.702,1.702,1.7074,1.7032,1.7032,1.7032,1.7033,1.7033,1.7019,1.7012,1.7014,1.7009,1.701,1.7009,1.7002,1.7006,1.7002,1.6998,1.7004,1.6996,1.6996,1.6992,1.6992,1.6985,1.6992,1.6987,1.6985,1.6983,1.6981,1.7022,1.6984,1.6985,1.6985,1.6985,1.6985,0,1.6979,1.6981,1.6976,1.6975,1.6971,1.6981,1.6981,1.6976,1.6969,1.6969,1.6965,1.6957,1.6951,1.6955,1.695,1.6944,1.6947,1.6942,1.6942,1.6941,1.6975,1.6979,1.6939,1.6939,1.6939,1.6939,1.6939,1.6939,1.6957,1.6945,1.695,1.6938,1.6941,1.6933,1.6932,1.693,1.693,1.6921,1.6917,1.692,1.6921,1.6916,1.691,1.6912,1.6909,1.6901,1.6903,1.6935,1.6939,1.6944,1.6947,1.6901,1.6901,1.687,1.687,1.687]}]]